Time,TemperatureF,DewpointF,PressureIn,WindDirection,WindDirectionDegrees,WindSpeedMPH,WindSpeedGustMPH,Humidity,HourlyPrecipIn,Conditions,Clouds,dailyrainin,SoftwareType,DateUTC
2013-10-24 00:01:00,38.3,26.4,30.13,East,84,4.0,4.0,62,0.00,,,0.00,vanprod-2.5-rc3,2013-10-24 06:01:00,
2013-10-24 00:06:00,38.3,26.4,30.13,ENE,78,3.0,4.0,62,0.00,,,0.00,vanprod-2.5-rc3,2013-10-24 06:06:00,
2013-10-24 00:11:00,38.0,26.2,30.13,ENE,77,3.0,5.0,62,0.00,,,0.00,vanprod-2.5-rc3,2013-10-24 06:11:00,
2013-10-24 00:16:00,37.9,26.4,30.13,East,85,1.0,0.0,63,0.00,,,0.00,vanprod-2.5-rc3,2013-10-24 06:16:00,
2013-10-24 00:21:00,37.8,26.4,30.13,East,87,0.0,0.0,63,0.00,,,0.00,vanprod-2.5-rc3,2013-10-24 06:21:00,
2013-10-24 00:26:00,37.8,26.4,30.13,ESE,105,0.0,0.0,63,0.00,,,0.00,vanprod-2.5-rc3,2013-10-24 06:26:00,
2013-10-24 00:31:00,37.9,26.4,30.13,ESE,103,0.0,0.0,63,0.00,,,0.00,vanprod-2.5-rc3,2013-10-24 06:31:00,
2013-10-24 00:36:00,37.9,26.8,30.13,East,82,3.0,4.0,64,0.00,,,0.00,vanprod-2.5-rc3,2013-10-24 06:36:00,
2013-10-24 00:41:00,37.7,27.0,30.13,East,82,4.0,5.0,65,0.00,,,0.00,vanprod-2.5-rc3,2013-10-24 06:41:00,
2013-10-24 00:46:00,37.7,27.0,30.13,East,84,4.0,5.0,65,0.00,,,0.00,vanprod-2.5-rc3,2013-10-24 06:46:00,
2013-10-24 00:51:00,37.8,27.5,30.13,East,87,3.0,3.0,66,0.00,,,0.00,vanprod-2.5-rc3,2013-10-24 06:51:00,
2013-10-24 00:56:00,37.9,27.6,30.13,East,95,3.0,4.0,66,0.00,,,0.00,vanprod-2.5-rc3,2013-10-24 06:56:00,
2013-10-24 01:01:00,38.2,27.9,30.15,East,97,0.0,0.0,66,0.00,,,0.00,vanprod-2.5-rc3,2013-10-24 07:01:00,
2013-10-24 01:06:00,38.1,27.4,30.15,East,89,0.0,0.0,65,0.00,,,0.00,vanprod-2.5-rc3,2013-10-24 07:06:00,
2013-10-24 01:11:00,37.7,27.0,30.15,East,84,3.0,4.0,65,0.00,,,0.00,vanprod-2.5-rc3,2013-10-24 07:11:00,
2013-10-24 01:16:00,37.3,27.0,30.14,East,82,3.0,3.0,66,0.00,,,0.00,vanprod-2.5-rc3,2013-10-24 07:16:00,
2013-10-24 01:21:00,36.9,26.6,30.14,East,81,3.0,3.0,66,0.00,,,0.00,vanprod-2.5-rc3,2013-10-24 07:21:00,
2013-10-24 01:26:00,36.6,26.7,30.14,ENE,78,3.0,4.0,67,0.00,,,0.00,vanprod-2.5-rc3,2013-10-24 07:26:00,
2013-10-24 01:31:00,36.4,26.9,30.14,East,84,4.0,4.0,68,0.00,,,0.00,vanprod-2.5-rc3,2013-10-24 07:31:00,
2013-10-24 01:36:00,36.3,26.8,30.14,East,81,4.0,4.0,68,0.00,,,0.00,vanprod-2.5-rc3,2013-10-24 07:36:00,
2013-10-24 01:41:00,36.2,26.7,30.14,East,86,3.0,4.0,68,0.00,,,0.00,vanprod-2.5-rc3,2013-10-24 07:41:00,
2013-10-24 01:46:00,36.3,26.8,30.14,East,82,4.0,4.0,68,0.00,,,0.00,vanprod-2.5-rc3,2013-10-24 07:46:00,
2013-10-24 01:51:00,36.2,26.7,30.14,East,86,3.0,3.0,68,0.00,,,0.00,vanprod-2.5-rc3,2013-10-24 07:51:00,
2013-10-24 01:56:00,36.1,26.9,30.14,East,94,3.0,3.0,69,0.00,,,0.00,vanprod-2.5-rc3,2013-10-24 07:56:00,
2013-10-24 02:01:00,36.4,27.2,30.16,East,94,3.0,4.0,69,0.00,,,0.00,vanprod-2.5-rc3,2013-10-24 08:01:00,
2013-10-24 02:06:00,36.8,27.6,30.16,ESE,102,2.0,2.0,69,0.00,,,0.00,vanprod-2.5-rc3,2013-10-24 08:06:00,
2013-10-24 02:11:00,37.0,27.4,30.16,ESE,105,3.0,3.0,68,0.00,,,0.00,vanprod-2.5-rc3,2013-10-24 08:11:00,
2013-10-24 02:16:00,37.1,27.2,30.16,East,93,2.0,3.0,67,0.00,,,0.00,vanprod-2.5-rc3,2013-10-24 08:16:00,
2013-10-24 02:21:00,37.2,27.3,30.16,East,85,2.0,3.0,67,0.00,,,0.00,vanprod-2.5-rc3,2013-10-24 08:21:00,
2013-10-24 02:26:00,36.9,27.0,30.16,East,85,2.0,2.0,67,0.00,,,0.00,vanprod-2.5-rc3,2013-10-24 08:26:00,
2013-10-24 02:31:00,36.6,27.1,30.16,East,85,0.0,0.0,68,0.00,,,0.00,vanprod-2.5-rc3,2013-10-24 08:31:00,
2013-10-24 02:36:00,36.2,26.7,30.16,East,85,0.0,0.0,68,0.00,,,0.00,vanprod-2.5-rc3,2013-10-24 08:36:00,
2013-10-24 02:41:00,35.9,26.7,30.16,East,88,0.0,0.0,69,0.00,,,0.00,vanprod-2.5-rc3,2013-10-24 08:41:00,
2013-10-24 02:46:00,35.6,26.4,30.16,East,88,0.0,0.0,69,0.00,,,0.00,vanprod-2.5-rc3,2013-10-24 08:46:00,
2013-10-24 02:51:00,35.4,26.6,30.14,East,88,0.0,0.0,70,0.00,,,0.00,vanprod-2.5-rc3,2013-10-24 08:51:00,
2013-10-24 02:56:00,35.2,26.4,30.14,East,85,0.0,0.0,70,0.00,,,0.00,vanprod-2.5-rc3,2013-10-24 08:56:00,
2013-10-24 03:01:00,35.1,26.7,30.16,East,83,4.0,4.0,71,0.00,,,0.00,vanprod-2.5-rc3,2013-10-24 09:01:00,
2013-10-24 03:06:00,35.2,26.8,30.15,East,83,2.0,3.0,71,0.00,,,0.00,vanprod-2.5-rc3,2013-10-24 09:06:00,
2013-10-24 03:11:00,35.3,26.9,30.15,East,83,3.0,3.0,71,0.00,,,0.00,vanprod-2.5-rc3,2013-10-24 09:11:00,
2013-10-24 03:16:00,35.4,26.9,30.15,East,80,3.0,3.0,71,0.00,,,0.00,vanprod-2.5-rc3,2013-10-24 09:16:00,
2013-10-24 03:21:00,35.5,27.0,30.15,East,81,3.0,4.0,71,0.00,,,0.00,vanprod-2.5-rc3,2013-10-24 09:21:00,
2013-10-24 03:26:00,35.5,27.0,30.15,East,80,2.0,2.0,71,0.00,,,0.00,vanprod-2.5-rc3,2013-10-24 09:26:00,
2013-10-24 03:31:00,35.4,26.6,30.15,ENE,74,4.0,4.0,70,0.00,,,0.00,vanprod-2.5-rc3,2013-10-24 09:31:00,
2013-10-24 03:36:00,35.4,26.9,30.15,ENE,71,3.0,3.0,71,0.00,,,0.00,vanprod-2.5-rc3,2013-10-24 09:36:00,
2013-10-24 03:41:00,35.5,27.0,30.15,ENE,71,3.0,4.0,71,0.00,,,0.00,vanprod-2.5-rc3,2013-10-24 09:41:00,
2013-10-24 03:46:00,35.5,27.0,30.15,ENE,74,4.0,5.0,71,0.00,,,0.00,vanprod-2.5-rc3,2013-10-24 09:46:00,
2013-10-24 03:51:00,35.5,26.7,30.15,ENE,76,3.0,3.0,70,0.00,,,0.00,vanprod-2.5-rc3,2013-10-24 09:51:00,
2013-10-24 03:56:00,35.5,26.7,30.15,ENE,77,4.0,5.0,70,0.00,,,0.00,vanprod-2.5-rc3,2013-10-24 09:56:00,
2013-10-24 04:01:00,35.5,27.0,30.15,East,82,5.0,5.0,71,0.00,,,0.00,vanprod-2.5-rc3,2013-10-24 10:01:00,
2013-10-24 04:06:00,35.7,27.2,30.15,East,79,5.0,6.0,71,0.00,,,0.00,vanprod-2.5-rc3,2013-10-24 10:06:00,
2013-10-24 04:11:00,35.9,27.1,30.15,ENE,76,4.0,4.0,70,0.00,,,0.00,vanprod-2.5-rc3,2013-10-24 10:11:00,
2013-10-24 04:16:00,35.8,26.6,30.15,East,81,3.0,3.0,69,0.00,,,0.00,vanprod-2.5-rc3,2013-10-24 10:16:00,
2013-10-24 04:21:00,35.5,26.7,30.15,East,90,0.0,0.0,70,0.00,,,0.00,vanprod-2.5-rc3,2013-10-24 10:21:00,
2013-10-24 04:26:00,35.2,26.4,30.14,East,94,0.0,0.0,70,0.00,,,0.00,vanprod-2.5-rc3,2013-10-24 10:26:00,
2013-10-24 04:31:00,34.9,26.5,30.14,East,88,0.0,0.0,71,0.00,,,0.00,vanprod-2.5-rc3,2013-10-24 10:31:00,
2013-10-24 04:36:00,34.7,26.3,30.14,East,90,0.0,0.0,71,0.00,,,0.00,vanprod-2.5-rc3,2013-10-24 10:36:00,
2013-10-24 04:41:00,34.4,26.0,30.14,ENE,68,3.0,5.0,71,0.00,,,0.00,vanprod-2.5-rc3,2013-10-24 10:41:00,
2013-10-24 04:46:00,34.5,26.4,30.14,ENE,67,2.0,3.0,72,0.00,,,0.00,vanprod-2.5-rc3,2013-10-24 10:46:00,
2013-10-24 04:51:00,34.6,26.5,30.14,ENE,66,3.0,4.0,72,0.00,,,0.00,vanprod-2.5-rc3,2013-10-24 10:51:00,
2013-10-24 04:56:00,34.7,26.6,30.15,East,79,3.0,3.0,72,0.00,,,0.00,vanprod-2.5-rc3,2013-10-24 10:56:00,
2013-10-24 05:01:00,34.7,26.6,30.15,ENE,70,4.0,5.0,72,0.00,,,0.00,vanprod-2.5-rc3,2013-10-24 11:01:00,
2013-10-24 05:06:00,34.6,26.5,30.16,ENE,70,3.0,3.0,72,0.00,,,0.00,vanprod-2.5-rc3,2013-10-24 11:06:00,
2013-10-24 05:11:00,34.5,26.4,30.16,ENE,75,2.0,2.0,72,0.00,,,0.00,vanprod-2.5-rc3,2013-10-24 11:11:00,
2013-10-24 05:16:00,34.4,26.3,30.14,ENE,72,2.0,2.0,72,0.00,,,0.00,vanprod-2.5-rc3,2013-10-24 11:16:00,
2013-10-24 05:21:00,34.4,26.7,30.14,ENE,75,3.0,4.0,73,0.00,,,0.00,vanprod-2.5-rc3,2013-10-24 11:21:00,
2013-10-24 05:26:00,34.4,26.7,30.14,ENE,68,4.0,4.0,73,0.00,,,0.00,vanprod-2.5-rc3,2013-10-24 11:26:00,
2013-10-24 05:31:00,34.4,26.7,30.14,ENE,70,4.0,4.0,73,0.00,,,0.00,vanprod-2.5-rc3,2013-10-24 11:31:00,
2013-10-24 05:36:00,34.5,26.4,30.16,ENE,75,4.0,4.0,72,0.00,,,0.00,vanprod-2.5-rc3,2013-10-24 11:36:00,
2013-10-24 05:41:00,34.7,26.6,30.16,East,82,0.0,0.0,72,0.00,,,0.00,vanprod-2.5-rc3,2013-10-24 11:41:00,
2013-10-24 05:46:00,34.6,26.2,30.16,East,81,3.0,3.0,71,0.00,,,0.00,vanprod-2.5-rc3,2013-10-24 11:46:00,
2013-10-24 05:51:00,34.4,26.0,30.15,East,90,2.0,3.0,71,0.00,,,0.00,vanprod-2.5-rc3,2013-10-24 11:51:00,
2013-10-24 05:56:00,34.4,26.3,30.15,East,84,3.0,4.0,72,0.00,,,0.00,vanprod-2.5-rc3,2013-10-24 11:56:00,
2013-10-24 06:01:00,34.3,26.6,30.15,East,85,2.0,2.0,73,0.00,,,0.00,vanprod-2.5-rc3,2013-10-24 12:01:00,
2013-10-24 06:06:00,34.1,26.4,30.15,East,99,2.0,0.0,73,0.00,,,0.00,vanprod-2.5-rc3,2013-10-24 12:06:00,
2013-10-24 06:11:00,34.1,26.4,30.15,ESE,105,0.0,0.0,73,0.00,,,0.00,vanprod-2.5-rc3,2013-10-24 12:11:00,
2013-10-24 06:16:00,34.1,26.0,30.15,ESE,105,0.0,0.0,72,0.00,,,0.00,vanprod-2.5-rc3,2013-10-24 12:16:00,
2013-10-24 06:21:00,33.8,25.7,30.15,ESE,102,0.0,0.0,72,0.00,,,0.00,vanprod-2.5-rc3,2013-10-24 12:21:00,
2013-10-24 06:26:00,33.4,25.4,30.16,ESE,103,0.0,0.0,72,0.00,,,0.00,vanprod-2.5-rc3,2013-10-24 12:26:00,
2013-10-24 06:31:00,33.2,25.2,30.16,ESE,103,0.0,0.0,72,0.00,,,0.00,vanprod-2.5-rc3,2013-10-24 12:31:00,
2013-10-24 06:36:00,32.9,24.9,30.16,ESE,102,0.0,0.0,72,0.00,,,0.00,vanprod-2.5-rc3,2013-10-24 12:36:00,
2013-10-24 06:41:00,32.8,24.8,30.16,ESE,102,0.0,0.0,72,0.00,,,0.00,vanprod-2.5-rc3,2013-10-24 12:41:00,
2013-10-24 06:46:00,32.8,25.4,30.16,East,81,2.0,0.0,74,0.00,,,0.00,vanprod-2.5-rc3,2013-10-24 12:46:00,
2013-10-24 06:51:00,32.9,25.5,30.16,ENE,73,0.0,0.0,74,0.00,,,0.00,vanprod-2.5-rc3,2013-10-24 12:51:00,
2013-10-24 06:56:00,33.1,25.7,30.16,ENE,68,4.0,4.0,74,0.00,,,0.00,vanprod-2.5-rc3,2013-10-24 12:56:00,
2013-10-24 07:01:00,33.4,26.3,30.15,ENE,71,4.0,4.0,75,0.00,,,0.00,vanprod-2.5-rc3,2013-10-24 13:01:00,
2013-10-24 07:06:00,33.7,26.3,30.16,East,82,3.0,5.0,74,0.00,,,0.00,vanprod-2.5-rc3,2013-10-24 13:06:00,
2013-10-24 07:11:00,33.7,26.0,30.17,East,79,2.0,3.0,73,0.00,,,0.00,vanprod-2.5-rc3,2013-10-24 13:11:00,
2013-10-24 07:16:00,33.7,26.0,30.17,East,87,2.0,2.0,73,0.00,,,0.00,vanprod-2.5-rc3,2013-10-24 13:16:00,
2013-10-24 07:21:00,33.5,25.8,30.17,East,96,0.0,0.0,73,0.00,,,0.00,vanprod-2.5-rc3,2013-10-24 13:21:00,
2013-10-24 07:26:00,33.4,25.7,30.16,ENE,70,4.0,4.0,73,0.00,,,0.00,vanprod-2.5-rc3,2013-10-24 13:26:00,
2013-10-24 07:31:00,33.4,25.7,30.16,ENE,66,3.0,3.0,73,0.00,,,0.00,vanprod-2.5-rc3,2013-10-24 13:31:00,
2013-10-24 07:36:00,33.4,26.0,30.16,ENE,75,3.0,3.0,74,0.00,,,0.00,vanprod-2.5-rc3,2013-10-24 13:36:00,
2013-10-24 07:41:00,33.4,26.0,30.16,ESE,112,0.0,0.0,74,0.00,,,0.00,vanprod-2.5-rc3,2013-10-24 13:41:00,
2013-10-24 07:46:00,33.5,25.8,30.18,ESE,112,0.0,0.0,73,0.00,,,0.00,vanprod-2.5-rc3,2013-10-24 13:46:00,
2013-10-24 07:51:00,33.5,25.8,30.18,ESE,109,0.0,0.0,73,0.00,,,0.00,vanprod-2.5-rc3,2013-10-24 13:51:00,
2013-10-24 07:56:00,33.3,25.3,30.17,ESE,109,0.0,0.0,72,0.00,,,0.00,vanprod-2.5-rc3,2013-10-24 13:56:00,
2013-10-24 08:01:00,33.3,25.3,30.17,ESE,108,0.0,0.0,72,0.00,,,0.00,vanprod-2.5-rc3,2013-10-24 14:01:00,
2013-10-24 08:06:00,33.2,25.2,30.17,ENE,76,1.0,0.0,72,0.00,,,0.00,vanprod-2.5-rc3,2013-10-24 14:06:00,
2013-10-24 08:11:00,33.0,25.3,30.17,ENE,76,0.0,0.0,73,0.00,,,0.00,vanprod-2.5-rc3,2013-10-24 14:11:00,
2013-10-24 08:16:00,33.1,25.7,30.18,ENE,78,0.0,0.0,74,0.00,,,0.00,vanprod-2.5-rc3,2013-10-24 14:16:00,
2013-10-24 08:21:00,33.3,26.2,30.18,East,79,0.0,0.0,75,0.00,,,0.00,vanprod-2.5-rc3,2013-10-24 14:21:00,
2013-10-24 08:26:00,33.7,26.6,30.18,East,79,1.0,2.0,75,0.00,,,0.00,vanprod-2.5-rc3,2013-10-24 14:26:00,
2013-10-24 08:31:00,34.3,27.2,30.18,ENE,72,3.0,4.0,75,0.00,,,0.00,vanprod-2.5-rc3,2013-10-24 14:31:00,
2013-10-24 08:36:00,35.1,27.7,30.19,ENE,68,4.0,4.0,74,0.00,,,0.00,vanprod-2.5-rc3,2013-10-24 14:36:00,
2013-10-24 08:41:00,36.0,27.9,30.19,ENE,63,3.0,3.0,72,0.00,,,0.00,vanprod-2.5-rc3,2013-10-24 14:41:00,
2013-10-24 08:46:00,36.7,27.9,30.18,ENE,60,3.0,3.0,70,0.00,,,0.00,vanprod-2.5-rc3,2013-10-24 14:46:00,
2013-10-24 08:51:00,37.2,28.3,30.18,ENE,66,5.0,5.0,70,0.00,,,0.00,vanprod-2.5-rc3,2013-10-24 14:51:00,
2013-10-24 08:56:00,37.6,28.4,30.18,ENE,74,4.0,4.0,69,0.00,,,0.00,vanprod-2.5-rc3,2013-10-24 14:56:00,
2013-10-24 09:01:00,37.9,28.7,30.19,ENE,78,4.0,4.0,69,0.00,,,0.00,vanprod-2.5-rc3,2013-10-24 15:01:00,
2013-10-24 09:06:00,38.2,28.9,30.19,ENE,76,3.0,3.0,69,0.00,,,0.00,vanprod-2.5-rc3,2013-10-24 15:06:00,
2013-10-24 09:11:00,38.6,29.0,30.21,East,84,3.0,3.0,68,0.00,,,0.00,vanprod-2.5-rc3,2013-10-24 15:11:00,
2013-10-24 09:16:00,38.9,29.3,30.21,East,79,0.0,3.0,68,0.00,,,0.00,vanprod-2.5-rc3,2013-10-24 15:16:00,
2013-10-24 09:21:00,39.5,29.8,30.18,NE,55,2.0,4.0,68,0.00,,,0.00,vanprod-2.5-rc3,2013-10-24 15:21:00,
2013-10-24 09:26:00,39.8,29.4,30.21,East,93,2.0,4.0,66,0.00,,,0.00,vanprod-2.5-rc3,2013-10-24 15:26:00,
2013-10-24 09:31:00,40.2,30.1,30.19,East,85,1.0,1.0,67,0.00,,,0.00,vanprod-2.5-rc3,2013-10-24 15:31:00,
2013-10-24 09:36:00,40.7,30.2,30.20,East,82,4.0,4.0,66,0.00,,,0.00,vanprod-2.5-rc3,2013-10-24 15:36:00,
2013-10-24 09:41:00,41.1,30.2,30.20,East,80,3.0,3.0,65,0.00,,,0.00,vanprod-2.5-rc3,2013-10-24 15:41:00,
2013-10-24 09:46:00,41.5,29.9,30.20,East,84,0.0,0.0,63,0.00,,,0.00,vanprod-2.5-rc3,2013-10-24 15:46:00,
2013-10-24 09:51:00,41.6,28.8,30.20,SSE,148,0.0,0.0,60,0.00,,,0.00,vanprod-2.5-rc3,2013-10-24 15:51:00,
2013-10-24 09:56:00,41.8,29.4,30.20,ESE,116,1.0,2.0,61,0.00,,,0.00,vanprod-2.5-rc3,2013-10-24 15:56:00,
2013-10-24 10:01:00,42.4,29.1,30.20,ENE,76,5.0,5.0,59,0.00,,,0.00,vanprod-2.5-rc3,2013-10-24 16:01:00,
2013-10-24 10:06:00,43.2,29.4,30.18,East,84,4.0,4.0,58,0.00,,,0.00,vanprod-2.5-rc3,2013-10-24 16:06:00,
2013-10-24 10:11:00,43.7,29.5,30.21,ENE,72,4.0,4.0,57,0.00,,,0.00,vanprod-2.5-rc3,2013-10-24 16:11:00,
2013-10-24 10:16:00,44.0,29.8,30.21,ENE,69,5.0,5.0,57,0.00,,,0.00,vanprod-2.5-rc3,2013-10-24 16:16:00,
2013-10-24 10:21:00,44.3,29.2,30.20,NE,48,6.0,6.0,55,0.00,,,0.00,vanprod-2.5-rc3,2013-10-24 16:21:00,
2013-10-24 10:26:00,44.6,29.4,30.19,ENE,63,5.0,5.0,55,0.00,,,0.00,vanprod-2.5-rc3,2013-10-24 16:26:00,
2013-10-24 10:31:00,45.0,29.4,30.19,NE,56,5.0,7.0,54,0.00,,,0.00,vanprod-2.5-rc3,2013-10-24 16:31:00,
2013-10-24 10:36:00,45.2,29.6,30.19,NE,48,3.0,4.0,54,0.00,,,0.00,vanprod-2.5-rc3,2013-10-24 16:36:00,
2013-10-24 10:41:00,45.5,29.4,30.19,NE,45,4.0,4.0,53,0.00,,,0.00,vanprod-2.5-rc3,2013-10-24 16:41:00,
2013-10-24 10:46:00,45.7,30.0,30.19,NE,48,2.0,2.0,54,0.00,,,0.00,vanprod-2.5-rc3,2013-10-24 16:46:00,
2013-10-24 10:51:00,46.1,31.3,30.18,ENE,66,2.0,2.0,56,0.00,,,0.00,vanprod-2.5-rc3,2013-10-24 16:51:00,
2013-10-24 10:56:00,46.6,30.9,30.17,East,80,3.0,3.0,54,0.00,,,0.00,vanprod-2.5-rc3,2013-10-24 16:56:00,
2013-10-24 11:01:00,47.2,31.4,30.18,East,94,2.0,2.0,54,0.00,,,0.00,vanprod-2.5-rc3,2013-10-24 17:01:00,
2013-10-24 11:06:00,47.8,32.0,30.19,East,88,3.0,3.0,54,0.00,,,0.00,vanprod-2.5-rc3,2013-10-24 17:06:00,
2013-10-24 11:11:00,48.5,31.7,30.17,East,100,2.0,4.0,52,0.00,,,0.00,vanprod-2.5-rc3,2013-10-24 17:11:00,
2013-10-24 11:16:00,49.1,32.3,30.17,East,91,0.0,0.0,52,0.00,,,0.00,vanprod-2.5-rc3,2013-10-24 17:16:00,
2013-10-24 11:21:00,49.8,32.9,30.17,East,89,3.0,4.0,52,0.00,,,0.00,vanprod-2.5-rc3,2013-10-24 17:21:00,
2013-10-24 11:26:00,50.4,32.0,30.17,ENE,61,3.0,4.0,49,0.00,,,0.00,vanprod-2.5-rc3,2013-10-24 17:26:00,
2013-10-24 11:31:00,50.9,31.9,30.17,ENE,58,4.0,6.0,48,0.00,,,0.00,vanprod-2.5-rc3,2013-10-24 17:31:00,
2013-10-24 11:36:00,51.3,31.2,30.17,NE,41,4.0,4.0,46,0.00,,,0.00,vanprod-2.5-rc3,2013-10-24 17:36:00,
2013-10-24 11:41:00,51.6,32.6,30.18,NE,39,3.0,6.0,48,0.00,,,0.00,vanprod-2.5-rc3,2013-10-24 17:41:00,
2013-10-24 11:46:00,52.1,32.0,30.17,NE,41,2.0,3.0,46,0.00,,,0.00,vanprod-2.5-rc3,2013-10-24 17:46:00,
2013-10-24 11:51:00,52.6,33.5,30.17,East,79,1.0,2.0,48,0.00,,,0.00,vanprod-2.5-rc3,2013-10-24 17:51:00,
2013-10-24 11:56:00,53.0,33.3,30.16,East,84,0.0,3.0,47,0.00,,,0.00,vanprod-2.5-rc3,2013-10-24 17:56:00,
2013-10-24 12:01:00,53.6,33.3,30.15,NE,54,0.0,0.0,46,0.00,,,0.00,vanprod-2.5-rc3,2013-10-24 18:01:00,
2013-10-24 12:06:00,54.0,32.0,30.15,NE,56,3.0,3.0,43,0.00,,,0.00,vanprod-2.5-rc3,2013-10-24 18:06:00,
2013-10-24 12:11:00,54.4,33.0,30.15,NE,50,2.0,2.0,44,0.00,,,0.00,vanprod-2.5-rc3,2013-10-24 18:11:00,
2013-10-24 12:16:00,54.7,33.8,30.14,East,87,0.0,0.0,45,0.00,,,0.00,vanprod-2.5-rc3,2013-10-24 18:16:00,
2013-10-24 12:21:00,55.1,33.0,30.14,NE,49,0.0,0.0,43,0.00,,,0.00,vanprod-2.5-rc3,2013-10-24 18:21:00,
2013-10-24 12:26:00,55.6,32.3,30.15,NNE,22,4.0,4.0,41,0.00,,,0.00,vanprod-2.5-rc3,2013-10-24 18:26:00,
2013-10-24 12:31:00,55.9,31.3,30.13,NE,35,1.0,3.0,39,0.00,,,0.00,vanprod-2.5-rc3,2013-10-24 18:31:00,
2013-10-24 12:36:00,56.2,31.6,30.13,NNE,28,0.0,1.0,39,0.00,,,0.00,vanprod-2.5-rc3,2013-10-24 18:36:00,
2013-10-24 12:41:00,56.5,32.5,30.15,NE,42,0.0,0.0,40,0.00,,,0.00,vanprod-2.5-rc3,2013-10-24 18:41:00,
2013-10-24 12:46:00,57.0,35.3,30.14,ENE,64,0.0,3.0,44,0.00,,,0.00,vanprod-2.5-rc3,2013-10-24 18:46:00,
2013-10-24 12:51:00,57.5,32.8,30.13,SE,136,0.0,0.0,39,0.00,,,0.00,vanprod-2.5-rc3,2013-10-24 18:51:00,
2013-10-24 12:56:00,58.2,34.0,30.12,NW,312,3.0,3.0,40,0.00,,,0.00,vanprod-2.5-rc3,2013-10-24 18:56:00,
2013-10-24 13:01:00,58.7,34.5,30.13,WNW,294,2.0,4.0,40,0.00,,,0.00,vanprod-2.5-rc3,2013-10-24 19:01:00,
2013-10-24 13:06:00,59.0,34.1,30.13,NW,309,1.0,3.0,39,0.00,,,0.00,vanprod-2.5-rc3,2013-10-24 19:06:00,
2013-10-24 13:11:00,59.0,34.7,30.13,NW,306,2.0,4.0,40,0.00,,,0.00,vanprod-2.5-rc3,2013-10-24 19:11:00,
2013-10-24 13:16:00,59.0,32.1,30.13,West,279,3.0,3.0,36,0.00,,,0.00,vanprod-2.5-rc3,2013-10-24 19:16:00,
2013-10-24 13:21:00,59.3,32.4,30.12,ENE,57,0.0,3.0,36,0.00,,,0.00,vanprod-2.5-rc3,2013-10-24 19:21:00,
2013-10-24 13:26:00,59.6,32.6,30.11,SW,228,0.0,0.0,36,0.00,,,0.00,vanprod-2.5-rc3,2013-10-24 19:26:00,
2013-10-24 13:31:00,60.0,33.0,30.11,SW,224,0.0,0.0,36,0.00,,,0.00,vanprod-2.5-rc3,2013-10-24 19:31:00,
2013-10-24 13:36:00,60.5,32.7,30.11,SSW,202,0.0,0.0,35,0.00,,,0.00,vanprod-2.5-rc3,2013-10-24 19:36:00,
2013-10-24 13:41:00,60.8,31.5,30.11,SW,229,0.0,0.0,33,0.00,,,0.00,vanprod-2.5-rc3,2013-10-24 19:41:00,
2013-10-24 13:46:00,60.9,33.1,30.10,SW,229,0.0,0.0,35,0.00,,,0.00,vanprod-2.5-rc3,2013-10-24 19:46:00,
2013-10-24 13:51:00,61.3,34.8,30.09,SSW,212,1.0,2.0,37,0.00,,,0.00,vanprod-2.5-rc3,2013-10-24 19:51:00,
2013-10-24 13:56:00,61.9,34.0,30.10,SW,232,0.0,0.0,35,0.00,,,0.00,vanprod-2.5-rc3,2013-10-24 19:56:00,
2013-10-24 14:01:00,62.3,33.6,30.09,WSW,238,0.0,2.0,34,0.00,,,0.00,vanprod-2.5-rc3,2013-10-24 20:01:00,
2013-10-24 14:06:00,62.4,31.4,30.09,WSW,248,0.0,0.0,31,0.00,,,0.00,vanprod-2.5-rc3,2013-10-24 20:06:00,
2013-10-24 14:11:00,62.7,33.2,30.09,SW,219,0.0,0.0,33,0.00,,,0.00,vanprod-2.5-rc3,2013-10-24 20:11:00,
2013-10-24 14:16:00,63.1,32.8,30.09,SW,232,0.0,2.0,32,0.00,,,0.00,vanprod-2.5-rc3,2013-10-24 20:16:00,
2013-10-24 14:21:00,63.5,30.7,30.08,WSW,245,0.0,0.0,29,0.00,,,0.00,vanprod-2.5-rc3,2013-10-24 20:21:00,
2013-10-24 14:26:00,63.6,30.8,30.07,WSW,243,0.0,0.0,29,0.00,,,0.00,vanprod-2.5-rc3,2013-10-24 20:26:00,
2013-10-24 14:31:00,63.8,31.0,30.07,SW,232,0.0,0.0,29,0.00,,,0.00,vanprod-2.5-rc3,2013-10-24 20:31:00,
2013-10-24 14:36:00,64.2,32.1,30.09,SW,216,2.0,2.0,30,0.00,,,0.00,vanprod-2.5-rc3,2013-10-24 20:36:00,
2013-10-24 14:41:00,64.5,33.2,30.07,SSW,205,0.0,0.0,31,0.00,,,0.00,vanprod-2.5-rc3,2013-10-24 20:41:00,
2013-10-24 14:46:00,64.5,33.2,30.07,SW,218,2.0,7.0,31,0.00,,,0.00,vanprod-2.5-rc3,2013-10-24 20:46:00,
2013-10-24 14:51:00,64.6,32.5,30.07,SW,224,2.0,0.0,30,0.00,,,0.00,vanprod-2.5-rc3,2013-10-24 20:51:00,
2013-10-24 14:56:00,64.8,31.8,30.07,South,189,3.0,3.0,29,0.00,,,0.00,vanprod-2.5-rc3,2013-10-24 20:56:00,
2013-10-24 15:01:00,65.1,34.5,30.07,South,187,0.0,1.0,32,0.00,,,0.00,vanprod-2.5-rc3,2013-10-24 21:01:00,
2013-10-24 15:06:00,65.6,33.4,30.08,SSW,199,1.0,0.0,30,0.00,,,0.00,vanprod-2.5-rc3,2013-10-24 21:06:00,
2013-10-24 15:11:00,65.9,33.6,30.08,South,187,1.0,0.0,30,0.00,,,0.00,vanprod-2.5-rc3,2013-10-24 21:11:00,
2013-10-24 15:16:00,66.2,33.9,30.08,WSW,246,3.0,7.0,30,0.00,,,0.00,vanprod-2.5-rc3,2013-10-24 21:16:00,
2013-10-24 15:21:00,65.8,32.7,30.07,NW,311,2.0,0.0,29,0.00,,,0.00,vanprod-2.5-rc3,2013-10-24 21:21:00,
2013-10-24 15:26:00,65.7,33.4,30.07,SW,214,4.0,4.0,30,0.00,,,0.00,vanprod-2.5-rc3,2013-10-24 21:26:00,
2013-10-24 15:31:00,66.0,34.5,30.07,South,191,3.0,0.0,31,0.00,,,0.00,vanprod-2.5-rc3,2013-10-24 21:31:00,
2013-10-24 15:36:00,66.3,36.4,30.07,SW,214,2.0,4.0,33,0.00,,,0.00,vanprod-2.5-rc3,2013-10-24 21:36:00,
2013-10-24 15:41:00,66.4,34.1,30.07,WSW,247,7.0,7.0,30,0.00,,,0.00,vanprod-2.5-rc3,2013-10-24 21:41:00,
2013-10-24 15:46:00,66.2,33.0,30.07,West,261,8.0,10.0,29,0.00,,,0.00,vanprod-2.5-rc3,2013-10-24 21:46:00,
2013-10-24 15:51:00,66.0,33.7,30.07,WSW,253,8.0,9.0,30,0.00,,,0.00,vanprod-2.5-rc3,2013-10-24 21:51:00,
2013-10-24 15:56:00,66.1,32.1,30.04,WSW,255,9.0,9.0,28,0.00,,,0.00,vanprod-2.5-rc3,2013-10-24 21:56:00,
2013-10-24 16:01:00,66.2,30.3,30.06,WSW,257,12.0,12.0,26,0.00,,,0.00,vanprod-2.5-rc3,2013-10-24 22:01:00,
2013-10-24 16:06:00,66.1,31.2,30.06,WSW,257,11.0,12.0,27,0.00,,,0.00,vanprod-2.5-rc3,2013-10-24 22:06:00,
2013-10-24 16:11:00,66.2,30.3,30.06,West,260,8.0,9.0,26,0.00,,,0.00,vanprod-2.5-rc3,2013-10-24 22:11:00,
2013-10-24 16:16:00,66.1,29.3,30.05,West,266,8.0,12.0,25,0.00,,,0.00,vanprod-2.5-rc3,2013-10-24 22:16:00,
2013-10-24 16:21:00,65.8,29.0,30.05,West,267,11.0,11.0,25,0.00,,,0.00,vanprod-2.5-rc3,2013-10-24 22:21:00,
2013-10-24 16:26:00,65.8,30.9,30.05,West,260,5.0,6.0,27,0.00,,,0.00,vanprod-2.5-rc3,2013-10-24 22:26:00,
2013-10-24 16:31:00,66.0,30.2,30.05,West,266,7.0,7.0,26,0.00,,,0.00,vanprod-2.5-rc3,2013-10-24 22:31:00,
2013-10-24 16:36:00,65.9,28.1,30.06,West,267,9.0,10.0,24,0.00,,,0.00,vanprod-2.5-rc3,2013-10-24 22:36:00,
2013-10-24 16:41:00,65.7,26.9,30.06,West,266,11.0,11.0,23,0.00,,,0.00,vanprod-2.5-rc3,2013-10-24 22:41:00,
2013-10-24 16:46:00,65.3,27.6,30.06,WSW,254,6.0,6.0,24,0.00,,,0.00,vanprod-2.5-rc3,2013-10-24 22:46:00,
2013-10-24 16:51:00,64.6,27.0,30.06,WSW,247,7.0,10.0,24,0.00,,,0.00,vanprod-2.5-rc3,2013-10-24 22:51:00,
2013-10-24 16:56:00,64.1,27.6,30.05,WSW,251,2.0,2.0,25,0.00,,,0.00,vanprod-2.5-rc3,2013-10-24 22:56:00,
2013-10-24 17:01:00,64.0,26.5,30.05,WSW,249,7.0,9.0,24,0.00,,,0.00,vanprod-2.5-rc3,2013-10-24 23:01:00,
2013-10-24 17:06:00,63.9,26.4,30.05,WSW,254,3.0,5.0,24,0.00,,,0.00,vanprod-2.5-rc3,2013-10-24 23:06:00,
2013-10-24 17:11:00,63.6,27.2,30.05,WSW,245,0.0,0.0,25,0.00,,,0.00,vanprod-2.5-rc3,2013-10-24 23:11:00,
2013-10-24 17:16:00,63.2,28.7,30.05,SW,216,0.0,0.0,27,0.00,,,0.00,vanprod-2.5-rc3,2013-10-24 23:16:00,
2013-10-24 17:21:00,62.8,28.3,30.05,SSW,196,0.0,0.0,27,0.00,,,0.00,vanprod-2.5-rc3,2013-10-24 23:21:00,
2013-10-24 17:26:00,62.6,29.1,30.05,SSW,193,0.0,0.0,28,0.00,,,0.00,vanprod-2.5-rc3,2013-10-24 23:26:00,
2013-10-24 17:31:00,62.4,28.9,30.05,SSW,197,0.0,0.0,28,0.00,,,0.00,vanprod-2.5-rc3,2013-10-24 23:31:00,
2013-10-24 17:36:00,62.2,29.6,30.05,South,186,0.0,0.0,29,0.00,,,0.00,vanprod-2.5-rc3,2013-10-24 23:36:00,
2013-10-24 17:41:00,62.1,30.3,30.05,South,188,0.0,0.0,30,0.00,,,0.00,vanprod-2.5-rc3,2013-10-24 23:41:00,
2013-10-24 17:46:00,62.0,31.0,30.05,South,181,0.0,0.0,31,0.00,,,0.00,vanprod-2.5-rc3,2013-10-24 23:46:00,
2013-10-24 17:51:00,61.8,30.9,30.05,South,186,0.0,0.0,31,0.00,,,0.00,vanprod-2.5-rc3,2013-10-24 23:51:00,
2013-10-24 17:56:00,61.5,30.6,30.05,South,190,0.0,0.0,31,0.00,,,0.00,vanprod-2.5-rc3,2013-10-24 23:56:00,
2013-10-24 18:01:00,61.1,29.5,30.04,SSW,196,1.0,3.0,30,0.00,,,0.00,vanprod-2.5-rc3,2013-10-25 00:01:00,
2013-10-24 18:06:00,60.7,29.9,30.04,SSW,197,0.0,0.0,31,0.00,,,0.00,vanprod-2.5-rc3,2013-10-25 00:06:00,
2013-10-24 18:11:00,60.1,29.4,30.05,South,190,0.0,0.0,31,0.00,,,0.00,vanprod-2.5-rc3,2013-10-25 00:11:00,
2013-10-24 18:16:00,59.5,29.6,30.06,SSW,198,0.0,0.0,32,0.00,,,0.00,vanprod-2.5-rc3,2013-10-25 00:16:00,
2013-10-24 18:21:00,59.0,29.2,30.06,SSW,203,0.0,0.0,32,0.00,,,0.00,vanprod-2.5-rc3,2013-10-25 00:21:00,
2013-10-24 18:26:00,58.3,28.6,30.05,South,190,1.0,2.0,32,0.00,,,0.00,vanprod-2.5-rc3,2013-10-25 00:26:00,
2013-10-24 18:31:00,57.9,29.0,30.05,SSW,201,0.0,0.0,33,0.00,,,0.00,vanprod-2.5-rc3,2013-10-25 00:31:00,
2013-10-24 18:36:00,57.6,28.7,30.06,SSW,202,1.0,2.0,33,0.00,,,0.00,vanprod-2.5-rc3,2013-10-25 00:36:00,
2013-10-24 18:41:00,57.3,27.7,30.06,SSW,195,2.0,2.0,32,0.00,,,0.00,vanprod-2.5-rc3,2013-10-25 00:41:00,
2013-10-24 18:46:00,57.0,27.5,30.06,SSW,194,0.0,0.0,32,0.00,,,0.00,vanprod-2.5-rc3,2013-10-25 00:46:00,
2013-10-24 18:51:00,56.7,27.9,30.06,SSW,199,0.0,0.0,33,0.00,,,0.00,vanprod-2.5-rc3,2013-10-25 00:51:00,
2013-10-24 18:56:00,56.3,27.6,30.08,South,184,2.0,0.0,33,0.00,,,0.00,vanprod-2.5-rc3,2013-10-25 00:56:00,
2013-10-24 19:01:00,55.9,28.0,30.08,SSW,193,0.0,0.0,34,0.00,,,0.00,vanprod-2.5-rc3,2013-10-25 01:01:00,
2013-10-24 19:06:00,55.6,27.0,30.08,SW,214,1.0,0.0,33,0.00,,,0.00,vanprod-2.5-rc3,2013-10-25 01:06:00,
2013-10-24 19:11:00,55.5,27.6,30.08,South,186,0.0,0.0,34,0.00,,,0.00,vanprod-2.5-rc3,2013-10-25 01:11:00,
2013-10-24 19:16:00,55.1,26.5,30.08,South,186,0.0,0.0,33,0.00,,,0.00,vanprod-2.5-rc3,2013-10-25 01:16:00,
2013-10-24 19:21:00,54.7,26.2,30.08,South,186,0.0,0.0,33,0.00,,,0.00,vanprod-2.5-rc3,2013-10-25 01:21:00,
2013-10-24 19:26:00,54.4,26.6,30.07,South,186,0.0,0.0,34,0.00,,,0.00,vanprod-2.5-rc3,2013-10-25 01:26:00,
2013-10-24 19:31:00,54.2,26.5,30.07,South,186,0.0,0.0,34,0.00,,,0.00,vanprod-2.5-rc3,2013-10-25 01:31:00,
2013-10-24 19:36:00,54.0,26.3,30.08,SSW,197,0.0,0.0,34,0.00,,,0.00,vanprod-2.5-rc3,2013-10-25 01:36:00,
2013-10-24 19:41:00,53.7,26.7,30.08,SSW,196,0.0,0.0,35,0.00,,,0.00,vanprod-2.5-rc3,2013-10-25 01:41:00,
2013-10-24 19:46:00,53.2,26.3,30.08,SSW,196,0.0,0.0,35,0.00,,,0.00,vanprod-2.5-rc3,2013-10-25 01:46:00,
2013-10-24 19:51:00,52.7,25.8,30.08,SSW,196,0.0,0.0,35,0.00,,,0.00,vanprod-2.5-rc3,2013-10-25 01:51:00,
2013-10-24 19:56:00,52.4,24.9,30.09,SSW,196,0.0,0.0,34,0.00,,,0.00,vanprod-2.5-rc3,2013-10-25 01:56:00,
2013-10-24 20:01:00,52.8,24.5,30.08,SSW,205,0.0,0.0,33,0.00,,,0.00,vanprod-2.5-rc3,2013-10-25 02:01:00,
2013-10-24 20:06:00,53.1,26.2,30.08,SSW,203,0.0,0.0,35,0.00,,,0.00,vanprod-2.5-rc3,2013-10-25 02:06:00,
2013-10-24 20:11:00,52.3,26.8,30.08,ESE,113,0.0,0.0,37,0.00,,,0.00,vanprod-2.5-rc3,2013-10-25 02:11:00,
2013-10-24 20:16:00,50.8,26.8,30.10,ESE,104,0.0,0.0,39,0.00,,,0.00,vanprod-2.5-rc3,2013-10-25 02:16:00,
2013-10-24 20:21:00,49.5,26.2,30.10,East,91,0.0,0.0,40,0.00,,,0.00,vanprod-2.5-rc3,2013-10-25 02:21:00,
2013-10-24 20:26:00,48.5,25.9,30.09,East,81,0.0,0.0,41,0.00,,,0.00,vanprod-2.5-rc3,2013-10-25 02:26:00,
2013-10-24 20:31:00,47.6,26.2,30.09,East,85,0.0,0.0,43,0.00,,,0.00,vanprod-2.5-rc3,2013-10-25 02:31:00,
2013-10-24 20:36:00,46.9,26.1,30.11,East,81,0.0,0.0,44,0.00,,,0.00,vanprod-2.5-rc3,2013-10-25 02:36:00,
2013-10-24 20:41:00,46.4,25.7,30.11,East,82,0.0,0.0,44,0.00,,,0.00,vanprod-2.5-rc3,2013-10-25 02:41:00,
2013-10-24 20:46:00,46.2,25.5,30.11,ESE,108,0.0,0.0,44,0.00,,,0.00,vanprod-2.5-rc3,2013-10-25 02:46:00,
2013-10-24 20:51:00,46.3,25.6,30.11,ESE,107,0.0,0.0,44,0.00,,,0.00,vanprod-2.5-rc3,2013-10-25 02:51:00,
2013-10-24 20:56:00,45.9,25.8,30.11,East,92,0.0,0.0,45,0.00,,,0.00,vanprod-2.5-rc3,2013-10-25 02:56:00,
2013-10-24 21:01:00,45.5,25.9,30.11,ESE,114,0.0,3.0,46,0.00,,,0.00,vanprod-2.5-rc3,2013-10-25 03:01:00,
2013-10-24 21:06:00,45.8,26.2,30.11,ESE,113,1.0,1.0,46,0.00,,,0.00,vanprod-2.5-rc3,2013-10-25 03:06:00,
2013-10-24 21:11:00,46.2,26.6,30.12,ESE,113,0.0,0.0,46,0.00,,,0.00,vanprod-2.5-rc3,2013-10-25 03:11:00,
2013-10-24 21:16:00,46.5,26.9,30.12,ESE,116,0.0,0.0,46,0.00,,,0.00,vanprod-2.5-rc3,2013-10-25 03:16:00,
2013-10-24 21:21:00,46.3,26.7,30.12,ESE,116,0.0,0.0,46,0.00,,,0.00,vanprod-2.5-rc3,2013-10-25 03:21:00,
2013-10-24 21:26:00,45.7,26.6,30.12,East,95,0.0,0.0,47,0.00,,,0.00,vanprod-2.5-rc3,2013-10-25 03:26:00,
2013-10-24 21:31:00,45.0,26.5,30.11,East,89,0.0,0.0,48,0.00,,,0.00,vanprod-2.5-rc3,2013-10-25 03:31:00,
2013-10-24 21:36:00,44.1,26.2,30.11,East,85,0.0,0.0,49,0.00,,,0.00,vanprod-2.5-rc3,2013-10-25 03:36:00,
2013-10-24 21:41:00,43.4,26.0,30.12,East,85,0.0,0.0,50,0.00,,,0.00,vanprod-2.5-rc3,2013-10-25 03:41:00,
2013-10-24 21:46:00,43.0,25.6,30.13,East,85,0.0,0.0,50,0.00,,,0.00,vanprod-2.5-rc3,2013-10-25 03:46:00,
2013-10-24 21:51:00,42.7,25.8,30.13,East,85,0.0,0.0,51,0.00,,,0.00,vanprod-2.5-rc3,2013-10-25 03:51:00,
2013-10-24 21:56:00,42.4,26.0,30.13,East,86,0.0,0.0,52,0.00,,,0.00,vanprod-2.5-rc3,2013-10-25 03:56:00,
2013-10-24 22:01:00,42.0,25.7,30.13,East,85,0.0,0.0,52,0.00,,,0.00,vanprod-2.5-rc3,2013-10-25 04:01:00,
2013-10-24 22:02:00,41.9,25.6,30.13,East,85,0.0,0.0,52,0.00,,,0.00,vanprod-2.5-rc3,2013-10-25 04:02:00,
2013-10-24 22:07:00,41.5,25.7,30.13,East,85,0.0,0.0,53,0.00,,,0.00,vanprod-2.5-rc3,2013-10-25 04:07:00,
2013-10-24 22:12:00,41.3,25.5,30.13,East,85,0.0,0.0,53,0.00,,,0.00,vanprod-2.5-rc3,2013-10-25 04:12:00,
2013-10-24 22:17:00,41.3,25.9,30.14,East,85,0.0,0.0,54,0.00,,,0.00,vanprod-2.5-rc3,2013-10-25 04:17:00,
2013-10-24 22:22:00,41.2,26.3,30.14,East,85,0.0,0.0,55,0.00,,,0.00,vanprod-2.5-rc3,2013-10-25 04:22:00,
2013-10-24 22:27:00,41.1,26.6,30.14,East,85,0.0,0.0,56,0.00,,,0.00,vanprod-2.5-rc3,2013-10-25 04:27:00,
2013-10-24 22:32:00,41.0,26.5,30.14,East,85,0.0,0.0,56,0.00,,,0.00,vanprod-2.5-rc3,2013-10-25 04:32:00,
2013-10-24 22:37:00,41.1,26.2,30.14,East,85,0.0,0.0,55,0.00,,,0.00,vanprod-2.5-rc3,2013-10-25 04:37:00,
2013-10-24 22:42:00,41.3,26.8,30.14,East,86,0.0,0.0,56,0.00,,,0.00,vanprod-2.5-rc3,2013-10-25 04:42:00,
2013-10-24 22:47:00,41.5,27.0,30.14,East,83,0.0,0.0,56,0.00,,,0.00,vanprod-2.5-rc3,2013-10-25 04:47:00,
2013-10-24 22:52:00,41.7,27.2,30.14,East,82,0.0,0.0,56,0.00,,,0.00,vanprod-2.5-rc3,2013-10-25 04:52:00,
2013-10-24 22:57:00,41.8,27.7,30.15,ENE,76,0.0,0.0,57,0.00,,,0.00,vanprod-2.5-rc3,2013-10-25 04:57:00,
2013-10-24 23:02:00,41.8,27.7,30.14,East,88,0.0,0.0,57,0.00,,,0.00,vanprod-2.5-rc3,2013-10-25 05:02:00,
2013-10-24 23:07:00,42.0,27.9,30.13,SSE,148,0.0,0.0,57,0.00,,,0.00,vanprod-2.5-rc3,2013-10-25 05:07:00,
2013-10-24 23:12:00,42.2,28.1,30.13,SSE,148,0.0,0.0,57,0.00,,,0.00,vanprod-2.5-rc3,2013-10-25 05:12:00,
2013-10-24 23:17:00,42.2,28.1,30.14,SSE,148,0.0,0.0,57,0.00,,,0.00,vanprod-2.5-rc3,2013-10-25 05:17:00,
2013-10-24 23:22:00,42.3,26.9,30.14,SSE,148,0.0,0.0,54,0.00,,,0.00,vanprod-2.5-rc3,2013-10-25 05:22:00,
2013-10-24 23:27:00,42.4,27.8,30.14,SSE,148,0.0,0.0,56,0.00,,,0.00,vanprod-2.5-rc3,2013-10-25 05:27:00,
2013-10-24 23:32:00,42.4,27.8,30.14,SSE,147,0.0,0.0,56,0.00,,,0.00,vanprod-2.5-rc3,2013-10-25 05:32:00,
2013-10-24 23:37:00,42.4,27.8,30.14,SE,128,0.0,0.0,56,0.00,,,0.00,vanprod-2.5-rc3,2013-10-25 05:37:00,
2013-10-24 23:42:00,42.3,27.7,30.14,East,95,0.0,0.0,56,0.00,,,0.00,vanprod-2.5-rc3,2013-10-25 05:42:00,
2013-10-24 23:47:00,42.4,27.4,30.14,ENE,69,2.0,2.0,55,0.00,,,0.00,vanprod-2.5-rc3,2013-10-25 05:47:00,
2013-10-24 23:52:00,42.5,27.9,30.15,East,90,2.0,2.0,56,0.00,,,0.00,vanprod-2.5-rc3,2013-10-25 05:52:00,
2013-10-24 23:57:00,42.7,27.7,30.15,ENE,77,3.0,3.0,55,0.00,,,0.00,vanprod-2.5-rc3,2013-10-25 05:57:00,